Location: Mascot Post Office (historical)
(40.2645°N, 99.5462°W)
Time: 02:43:51
(UTC+00:00)

DELTA 2 R/B (1) - Pass Details

Date: 14 July 2020
Orbit: 790 x 803 km, 39.6° (Epoch: 14 August)

Event Time Altitude Azimuth Distance (km) Brightness Sun altitude
Rises 02:41:54 0° 263° (W) 3,278 7.6 -6.4°
Reaches altitude 10° 02:44:23 10° 262° (W) 2,350 6.8 -6.7°
Maximum altitude 02:49:56 83° 176° (S) 801 3.6 -7.6°
Drops below altitude 10° 02:55:31 10° 88° (E) 2,360 5.6 -8.4°
Enters shadow 02:57:14 - 88° (E) 3,006 6.1 -8.7°
